Theta_e
319 319 319 318 318 318 318 318 318 319 319 320 321 327 336 334 334 334 333 335 335 333 329 328 324 326 325 323 326 327 327 324 323 321 310 310 311 310 307 306 304 303 302
317 316 316 316 317 318 318 318 319 318 318 318 319 320 321 323 329 333 333 332 334 334 332 331 330 327 325 323 326 327 327 325 322 321 310 310 309 310 308 306 305 305 303
311 312 312 313 313 313 315 316 318 318 318 318 318 318 320 321 325 329 332 332 332 333 333 331 330 329 327 325 326 327 327 327 324 322 312 310 311 309 308 306 305 305 303
311 311 312 313 313 314 314 313 314 317 317 317 317 317 319 320 320 322 325 331 332 330 331 332 329 328 328 327 326 327 327 325 323 323 317 310 311 310 309 307 306 304 302
309 311 312 312 312 313 313 314 314 313 315 316 317 318 318 319 320 321 324 328 331 332 330 329 329 328 328 328 327 327 326 327 325 325 323 313 310 310 309 308 308 305 304
311 311 312 313 314 314 313 313 313 314 314 315 315 315 316 317 318 322 324 325 330 331 330 330 328 327 328 328 327 327 327 327 326 324 319 312 311 310 310 308 308 306 303
313 313 312 312 313 314 314 314 314 314 313 313 313 314 314 314 316 317 319 322 325 327 331 330 330 327 327 327 328 327 327 325 324 322 312 311 310 311 310 308 307 304 302
314 315 314 314 313 313 312 313 311 312 312 313 313 314 314 314 313 314 317 319 321 323 326 329 329 328 327 326 327 327 326 323 322 315 310 308 310 309 307 307 302 301 299
314 315 315 315 314 314 314 314 313 312 311 310 310 310 310 311 312 313 313 315 317 319 320 325 327 329 328 327 327 327 324 321 317 311 308 308 307 307 306 303 302 299 297
314 315 314 313 313 312 313 314 313 313 311 310 310 310 310 310 310 312 313 314 313 316 320 322 326 328 328 327 326 325 322 316 310 307 307 306 306 304 300 301 301 295 294
315 314 313 312 312 311 311 312 312 313 311 311 311 310 310 310 309 312 314 315 314 315 320 325 327 327 327 325 324 321 317 311 307 305 305 305 304 303 298 296 296 294 296
313 312 311 311 311 311 311 311 312 312 312 311 310 310 310 311 314 314 314 314 317 319 321 324 323 324 323 322 320 317 311 306 304 304 305 302 300 301 300 297 297 300 294
310 310 311 311 311 312 312 313 312 312 311 310 310 311 311 316 317 317 317 317 318 319 321 321 321 321 320 318 312 308 304 303 303 302 302 302 300 301 301 300 300 292 289
307 307 310 310 311 312 312 312 311 311 311 312 313 313 315 317 317 316 317 318 318 318 318 317 318 318 314 309 306 302 301 302 301 301 301 302 302 301 300 296 290 288 288
306 307 307 309 311 311 311 311 311 310 311 311 311 312 313 315 314 314 315 316 314 313 315 316 312 310 306 303 302 303 302 301 301 302 301 300 300 295 289 288 288 287 287
304 305 306 308 310 310 310 309 309 309 308 307 308 310 310 310 311 312 312 311 311 309 307 304 304 302 302 302 301 301 301 302 301 300 300 296 289 287 287 287 286 286 285
302 305 305 308 309 307 308 307 307 307 305 304 305 305 306 307 306 306 305 303 304 302 303 300 300 301 300 301 301 301 300 300 300 294 289 287 287 287 287 286 285 284 284
302 302 302 302 305 306 306 305 305 305 303 302 301 301 301 302 301 301 300 300 298 298 298 299 300 300 300 300 300 300 298 291 290 288 288 287 287 286 285 284 283 284 285
300 300 300 300 301 303 304 303 304 303 301 301 300 300 300 302 300 301 299 298 299 299 299 299 299 300 299 299 296 290 289 290 288 287 287 286 285 284 283 284 285 285 285
299 300 299 299 300 302 301 300 299 299 299 300 299 298 298 299 299 298 298 298 298 298 298 299 299 299 295 290 288 287 288 287 287 286 285 283 283 283 285 286 285 284 283
299 299 298 298 299 299 297 297 297 296 296 296 296 297 298 298 298 298 297 297 298 298 298 293 290 290 288 287 287 288 287 286 285 283 283 283 283 284 285 284 283 282 282
301 299 298 297 298 297 296 298 297 296 297 298 298 298 298 298 298 298 298 297 291 290 290 290 290 289 288 287 286 285 284 283 283 283 283 283 283 283 282 281 281 281 282
304 301 299 297 298 299 299 300 300 299 299 299 299 298 298 298 296 293 290 290 289 289 290 289 288 286 286 285 284 283 283 283 283 283 283 282 281 281 281 280 280 282 283
305 305 302 302 301 300 301 301 299 299 299 299 297 295 295 293 290 289 289 289 289 289 288 286 286 285 285 284 283 284 283 282 282 282 282 281 280 280 280 281 282 283 283
306 305 304 303 302 301 301 300 299 298 297 295 294 293 292 290 289 289 289 289 289 287 287 286 285 284 283 283 283 282 282 282 281 281 281 280 280 281 281 283 283 284 284
305 305 304 303 302 302 300 298 296 294 296 295 293 292 290 289 289 289 289 288 287 286 286 284 284 283 283 282 282 281 281 281 281 280 280 280 280 281 283 283 284 284 284
Wind_Speed
35 33 30 29 29 26 26 31 35 37 33 33 32 31 39 39 37 36 34 32 30 28 30 29 30 30 31 29 26 25 23 21 19 17 17 15 15 15 14 13 12 11 12
37 39 38 35 31 30 27 25 28 29 33 37 36 36 34 36 38 40 35 34 35 32 31 33 31 33 32 31 31 29 27 25 23 21 18 12 17 19 18 17 15 14 15
24 24 21 21 22 27 33 31 28 28 23 27 35 39 38 40 40 40 41 39 36 36 33 33 35 33 33 34 33 32 31 29 26 24 19 8 10 12 17 20 18 17 17
16 16 15 13 10 10 14 25 33 34 30 27 27 36 39 40 38 39 39 41 40 37 36 35 34 34 35 36 36 34 32 32 29 25 27 26 17 9 8 17 20 18 18
19 21 18 10 7 6 8 12 17 27 32 26 26 26 30 35 37 39 40 44 46 42 38 36 37 37 39 37 37 37 31 35 33 31 32 29 27 23 20 12 15 17 18
28 22 18 15 11 8 7 8 10 14 20 24 25 26 28 29 31 32 35 37 43 46 44 41 38 38 40 38 37 38 37 36 35 33 33 30 27 26 21 22 18 17 16
24 25 24 21 18 16 15 12 11 10 12 17 22 25 27 30 33 34 35 35 37 43 44 44 43 42 40 39 38 38 40 38 35 34 32 30 25 24 23 21 18 17 17
24 26 25 25 23 21 20 18 16 15 14 17 18 19 20 22 28 33 35 38 37 36 40 44 45 44 42 41 40 38 41 37 36 34 31 28 27 22 20 17 17 15 15
29 31 28 26 26 26 26 22 22 20 17 17 19 21 22 23 25 27 31 35 36 38 38 38 45 48 45 44 40 37 37 36 35 34 29 27 23 20 18 15 16 17 14
31 31 27 30 29 26 29 26 24 24 21 18 18 22 25 29 30 28 28 33 34 36 38 39 41 44 42 41 36 32 33 34 33 30 28 24 21 18 14 14 14 16 16
27 26 28 28 30 26 20 20 22 23 21 18 19 22 23 27 28 26 26 29 32 34 35 36 36 36 37 35 31 30 33 34 31 28 25 22 20 17 15 13 12 15 21
23 23 24 25 24 17 15 11 8 10 13 18 20 22 23 24 22 20 21 25 27 28 30 30 29 30 31 29 29 32 33 31 28 26 23 21 20 17 14 13 18 20 19
23 21 23 22 18 14 11 8 8 12 18 24 24 23 22 19 17 16 17 19 21 21 22 24 25 27 26 27 29 28 28 26 24 23 20 17 14 13 16 17 18 17 20
21 23 21 16 18 15 13 14 12 13 17 20 19 19 15 12 11 11 11 12 16 20 22 23 24 24 27 27 28 27 25 22 18 16 13 11 12 14 16 15 15 17 21
24 22 19 12 15 12 14 16 19 21 21 16 16 12 9 8 8 9 10 12 16 19 21 22 23 24 26 26 24 20 17 15 13 10 11 13 13 11 13 15 16 19 22
21 20 14 8 10 12 16 19 20 21 18 14 10 7 4 4 6 8 10 14 17 18 18 20 24 24 21 18 15 13 12 11 10 10 10 9 10 12 13 16 18 20 22
17 17 11 7 8 12 16 15 16 15 12 10 8 4 2 5 8 8 9 11 13 17 18 20 19 18 15 14 14 12 9 7 6 5 6 9 12 15 16 18 20 20 19
14 13 10 8 9 11 11 11 10 9 7 6 5 3 4 7 8 11 13 14 18 21 21 22 19 20 18 12 9 7 2 1 3 7 10 12 14 15 18 19 18 18 19
10 8 8 8 7 7 8 8 6 6 5 6 7 7 8 10 13 14 17 19 19 19 19 19 17 13 11 8 5 4 3 3 5 8 11 13 16 17 16 15 17 21 22
7 7 7 6 7 8 8 8 5 5 5 6 6 9 14 15 16 18 18 18 17 18 16 15 12 9 7 5 3 1 4 6 9 12 14 16 16 15 12 14 20 23 22
6 5 5 6 6 6 7 6 6 8 10 11 12 11 11 15 16 19 18 17 15 15 13 12 11 8 6 3 4 7 9 11 12 15 16 15 15 12 10 13 19 19 17
9 6 4 4 4 6 5 5 8 9 9 11 13 16 16 17 16 15 16 15 13 12 11 8 6 3 1 2 5 8 11 13 14 15 17 17 13 14 18 17 17 14 15
11 9 8 9 9 10 12 14 16 15 17 18 17 16 16 16 16 14 13 11 9 7 6 4 3 2 4 6 8 9 10 12 14 16 16 15 17 18 17 15 13 14 14
8 10 12 13 14 13 14 15 15 14 15 16 17 15 13 13 12 9 8 6 5 4 3 3 4 5 7 9 11 12 13 14 15 16 16 17 18 17 15 13 11 13 15
8 9 10 11 12 12 12 13 13 12 13 13 13 11 10 9 8 6 5 4 4 4 5 5 7 8 9 9 12 14 14 15 15 17 17 16 15 12 10 9 12 14 15
10 9 10 11 12 13 12 12 11 10 8 9 9 7 6 5 4 3 3 3 5 8 10 11 12 11 12 14 15 15 16 17 17 17 17 16 13 12 11 13 15 15 14
Wind_Direction
278 279 275 272 271 260 257 250 245 246 243 243 244 245 245 247 247 250 251 251 247 242 236 235 230 229 230 229 229 232 233 235 239 243 244 246 251 253 249 244 239 244 248
283 285 282 276 271 264 258 253 251 251 248 245 245 246 249 251 251 250 252 251 250 247 235 239 234 228 231 229 230 233 234 234 235 236 239 242 245 246 244 243 241 249 251
305 305 300 287 277 267 258 250 248 249 254 251 244 244 244 247 246 245 248 249 250 249 243 240 243 237 231 233 233 235 235 236 235 237 230 218 230 229 239 239 239 249 252
343 338 324 311 297 296 273 259 247 244 247 251 248 245 246 247 249 249 248 249 249 248 250 245 243 249 241 235 235 236 241 239 236 243 240 238 244 226 236 241 243 247 251
15 14 11 354 325 300 291 281 264 248 240 244 247 249 252 255 254 253 252 247 250 250 251 246 244 246 245 240 236 237 241 242 235 239 243 238 241 244 239 245 246 248 251
23 21 14 8 4 352 329 296 278 263 243 244 248 249 252 254 258 256 254 253 247 248 250 248 246 246 247 244 241 240 243 241 241 240 241 244 238 239 243 239 246 253 255
5 359 357 354 350 343 334 321 308 289 265 254 251 253 254 255 253 255 256 254 252 251 248 248 246 246 248 247 246 241 239 238 239 240 239 240 239 247 240 247 246 248 256
358 349 342 334 322 317 319 317 307 291 284 279 273 269 269 265 259 253 250 251 251 251 250 250 249 247 247 246 244 242 237 236 236 236 237 234 244 236 247 245 259 252 257
345 341 335 329 320 308 297 296 293 291 284 281 279 276 275 275 270 266 259 251 249 250 250 249 246 250 244 246 240 239 234 232 232 232 233 238 231 239 248 252 260 265 270
335 334 331 329 324 313 301 286 275 276 279 277 279 277 277 275 275 273 265 253 252 250 249 249 247 243 239 237 239 232 227 227 228 227 229 229 232 235 242 255 260 277 281
331 329 328 327 323 315 306 294 276 267 270 281 289 289 289 282 278 276 268 251 249 253 254 250 247 241 233 233 226 220 221 222 223 222 219 228 233 234 238 248 267 280 284
330 330 335 339 346 344 324 313 295 284 297 308 306 303 297 288 274 265 258 250 250 253 252 249 244 229 221 216 216 215 217 217 212 217 220 215 217 229 246 268 275 281 299
336 336 337 347 342 352 353 344 340 320 323 313 306 301 295 284 271 259 251 252 256 258 247 237 226 214 210 210 208 210 209 208 213 213 219 223 235 253 263 271 283 300 282
339 339 333 335 345 341 340 344 334 319 311 313 312 306 294 284 276 266 259 259 247 235 222 209 206 206 201 200 202 199 197 208 210 214 228 243 258 267 277 296 286 285 285
342 341 336 330 345 346 350 335 338 334 326 319 321 312 292 265 251 235 230 230 213 204 198 198 193 192 192 189 192 202 198 201 209 233 247 260 269 303 289 283 284 287 290
341 341 350 325 343 343 345 345 340 340 340 334 323 311 279 222 208 198 200 198 190 188 182 178 175 174 180 176 174 188 196 206 228 248 261 291 281 278 289 291 283 287 294
345 349 352 328 336 345 345 348 350 354 356 8 3 343 273 196 175 170 161 162 159 156 159 158 157 154 166 167 167 179 204 224 248 304 288 286 288 290 294 294 293 291 289
348 359 5 352 349 345 350 354 355 1 19 53 68 112 139 122 111 119 123 130 138 143 147 150 154 154 154 161 170 176 159 219 278 281 286 288 294 299 298 297 299 299 295
345 351 354 355 352 354 356 354 1 17 37 65 82 110 124 115 125 125 137 143 149 143 142 139 140 142 133 138 112 118 197 271 288 293 297 302 305 308 304 309 304 301 301
346 353 356 347 349 355 359 1 16 31 51 73 92 96 93 101 110 117 121 126 133 134 135 132 128 119 109 125 90 356 323 315 315 314 312 310 309 311 318 305 298 297 305
348 341 350 355 9 14 27 15 43 82 88 94 98 100 100 105 115 121 128 131 133 131 123 113 111 96 84 107 290 321 317 314 313 312 313 316 319 322 306 302 296 303 310
26 15 29 31 50 66 52 69 98 98 106 101 106 112 114 115 118 119 120 111 103 101 99 94 90 102 121 297 308 308 310 310 315 320 320 318 322 309 313 311 309 308 305
54 57 79 90 89 92 101 106 101 110 116 119 115 114 113 110 106 100 97 101 98 82 74 74 65 17 337 321 312 308 314 321 319 318 321 320 320 322 320 319 317 315 316
91 95 104 109 109 107 107 105 108 112 115 116 114 111 105 104 104 103 98 90 83 66 56 30 355 341 336 330 322 322 325 322 327 326 331 329 328 327 324 324 322 321 322
131 126 124 126 125 122 118 114 116 118 121 120 117 116 111 108 104 101 92 69 42 23 359 347 338 334 333 332 330 330 331 330 335 327 329 328 330 332 331 330 330 329 329
165 160 148 147 144 136 131 121 123 127 126 120 117 111 102 97 87 58 32 17 6 1 353 348 343 339 333 330 331 332 329 336 327 329 329 333 336 339 340 338 337 336 331